Location: Albuquerque Country Club
(35.0873°N, 106.6706°W)
Time: 23:23:05
(UTC+00:00)

Daily predictions for brighter satellites

Satellite Brightness Start Highest point End
(mag) Time Altitude Azimuth Time Altitude Azimuth Time Altitude Azimuth
Cosmos 883 Rocket 4.4 12:00:34 10° N 12:06:41 80° W 12:12:48 10° S
Cosmos 2219 3.5 12:01:49 10° NNW 12:07:31 75° ENE 12:13:07 10° SSE
Cosmos 1743 2.8 12:08:58 10° N 12:12:53 87° E 12:16:45 10° S
SL-4 R/B 2.5 12:10:25 11° WNW 12:13:29 31° SW 12:16:50 10° SSE
Cosmos 2297 Rocket 3.2 12:08:20 10° N 12:13:50 50° ENE 12:19:17 10° SE
COSMO-SKYMED 1 3.3 12:10:04 10° SSE 12:14:19 57° ENE 12:18:34 10° N
CZ-4B DEB 4.3 12:15:48 10° NNE 12:21:22 90° SSW 12:26:51 10° SSW
Cosmos 2369 4.0 12:18:53 10° SSW 12:24:30 75° ESE 12:30:09 10° NNE
Hubble Space Telescope 2.9 12:23:49 10° SW 12:25:40 13° SSW 12:27:32 10° S
OAO 2 Rocket 3.3 12:21:16 10° W 12:26:12 89° NNW 12:31:09 10° E
Okean 2 Rocket 3.1 12:23:10 10° N 12:27:41 81° W 12:32:10 10° S
Meteor PRIRODA 4.4 12:25:22 10° N 12:28:43 33° WNW 12:32:04 10° SW
Meteor 2-8 Rocket 4.5 12:23:49 10° N 12:29:59 84° W 12:36:09 10° S
